Regional Weather Roundup
Issued by NWS Northern Indiana

Home | Current Version | Previous Version | Text Only | Print | Product List | Glossary On
Versions: 1 2 3 4 5 6 7 8 9 10 11 12 13 14 15 16 17 18 19 20 21 22 23 24 25 26 27 28 29 30 31 32 33 34 35 36 37 38 39 40 41 42 43 44 45 46 47 48 49 50
000
ASUS43 KIWX 211910
RWRIWX

KIWX WEATHER ROUNDUP
NATIONAL WEATHER SERVICE NORTHERN INDIANA
200 PM EST SAT JAN 21 2017

NOTE: "FAIR" INDICATES FEW OR NO CLOUDS BELOW 12,000 FEET WITH NO
SIGNIFICANT WEATHER AND/OR OBSTRUCTIONS TO VISIBILITY.

* THESE STATIONS ARE NOT UNDER NWS QUALITY CONTROL. THEY ALSO MAY NOT
  REPORT WEATHER SUCH AS PRECIPITATION OR FOG.

INZ001>027-212000-
NORTHERN INDIANA

CITY           SKY/WX    TMP DP  RH WIND       PRES   REMARKS
GARY*          MOSUNNY   61  46  59 S9G21     29.49F
VALPARAISO     MOSUNNY   61  52  72 SW14      29.51F
LAPORTE*       SUNNY     59  50  72 S13G18    29.51F
KNOX*          SUNNY     59  32  36 S13G22    29.51F
SOUTH BEND     SUNNY     60  49  66 S15       29.53F
ELKHART*       MOSUNNY   59  50  72 S12G17    29.54F
GOSHEN         MOSUNNY   59  49  69 S15       29.54F
ROCHESTER*     MOSUNNY   63  52  67 S14G20    29.55F
WARSAW*        CLOUDY    59  46  63 S8        29.55F
FORT WAYNE     PTSUNNY   60  52  74 S14       29.59F
PERU/GRISSOM   CLOUDY    62  55  76 S12       29.55F
MARION*        MOSUNNY   59  54  82 S12       29.58F HAZE

$$
INZ028>050-212000-
CENTRAL INDIANA

CITY           SKY/WX    TMP DP  RH WIND       PRES   REMARKS
LAFAYETTE      MOSUNNY   62  52  69 S10G22    29.54F
KOKOMO*        PTSUNNY   60  53  77 S15       29.56F
MUNCIE*        PTSUNNY   61  51  70 S10G18    29.59F
INDIANAPOLIS   PTSUNNY   63  52  67 S15       29.56F

$$
MIZ043>046-050>051-056>058-064>065-071>073-077>080-212000-
SOUTHWEST LOWER MICHIGAN

CITY           SKY/WX    TMP DP  RH WIND       PRES   REMARKS
BATTLE CREEK   SUNNY     57  51  80 S15       29.56F
BENTON HARBOR  SUNNY     60  49  66 S15G22    29.49F
COLDWATER*     CLOUDY    58  53  82 S9        29.57F
HILLSDALE*     CLOUDY    54  50  87 S9        29.58F
HOLLAND        SUNNY     60  49  66 S15       29.50F
GRAND RAPIDS   PTSUNNY   59  51  75 SE10      29.52F
KALAMAZOO      SUNNY     59  50  72 S8        29.55F
STURGIS*       SUNNY     58  50  74 S12       29.55F
THREE RIVERS*  FAIR      59  50  72 S13       29.55F

$$
OHZ001>008-015>018-024>025-212000-
NORTHWEST OHIO

CITY           SKY/WX    TMP DP  RH WIND       PRES   REMARKS
DEFIANCE       MOSUNNY   57  50  77 S12       29.60F
FINDLAY        CLOUDY    61  52  72 S10       29.61F
TOLEDO EXPRESS MOSUNNY   58  53  84 S9        29.61F
TOLEDO METCALF CLOUDY    59  53  80 S10       29.63F
LIMA           CLOUDY    58  52  80 S10       29.62F

$$
AND FOR LAKE MICHIGAN COASTAL AND OPEN LAKE BUOY OBSERVATIONS

STATION/POSITION TEMP    WIND        PRES    VSBY  WAVE
                 AIR SEA DIR/SP/G                  HT/PER
                 (F)     (DEG/KT/KT) (MB)    (MI)  (FT/S)
CALUMET HARBOR    58     190/  9/ 16   N/A
MICHIGAN CITY     57     170/ 17/ 20   N/A
BURNS HARBOR      57     190/ 14/ 22  999.7F

$$
&&



USA.gov is the U.S. government's official web portal to all federal, state and local government web resources and services.